SWA279 KPHX-KELP

Flight info

Callsign SWA279
Flight time 0h 51m
Altitude 37000
Route ECLPS1 PHASE TEEES MOLLY5
Aircraft B737/M-SADE2E3GIJ4RWZ/LB1D1

Departure

Time 2026-05-08 11:10
Airport Phoenix Sky Harbor International Airport (KPHX)

Arrival

Time 2026-05-08 12:02
Airport El Paso International Airport (KELP)
Time Latitude Longitude Altitude Speed Heading
2026-05-08 10:49 33.43352 -111.99437 1123 ft 0 kts 12°
2026-05-08 11:00 33.43330 -111.99443 1121 ft 4 kts 17°
2026-05-08 11:00 33.43307 -111.99452 1120 ft 3 kts 25°
2026-05-08 11:00 33.43293 -111.99462 1113 ft 2 kts 46°
2026-05-08 11:00 33.43286 -111.99473 1117 ft 2 kts 69°
2026-05-08 11:01 33.43283 -111.99486 1118 ft 2 kts 82°
2026-05-08 11:01 33.43282 -111.99500 1121 ft 2 kts 86°
2026-05-08 11:01 33.43281 -111.99508 1120 ft 0 kts 86°
2026-05-08 11:05 33.43282 -111.99499 1123 ft 2 kts 88°
2026-05-08 11:05 33.43282 -111.99469 1120 ft 5 kts 89°
2026-05-08 11:05 33.43282 -111.99427 1118 ft 6 kts 89°
2026-05-08 11:06 33.43283 -111.99363 1123 ft 9 kts 89°
2026-05-08 11:06 33.43282 -111.99283 1121 ft 11 kts 98°
2026-05-08 11:06 33.43221 -111.99256 1121 ft 11 kts 197°
2026-05-08 11:06 33.43198 -111.99274 1123 ft 0 kts 224°
2026-05-08 11:08 33.43191 -111.99282 1118 ft 2 kts 224°
2026-05-08 11:09 33.43172 -111.99304 1118 ft 8 kts 224°
2026-05-08 11:09 33.43112 -111.99380 1121 ft 18 kts 260°
2026-05-08 11:09 33.43104 -111.99598 1123 ft 49 kts 270°
2026-05-08 11:09 33.43104 -112.00314 1124 ft 120 kts 270°
2026-05-08 11:10 33.43104 -112.01545 1135 ft 172 kts 269°
2026-05-08 11:10 33.43155 -112.03044 1701 ft 181 kts 274°
2026-05-08 11:10 33.43219 -112.04564 2457 ft 183 kts 269°
2026-05-08 11:10 33.43155 -112.06069 3280 ft 183 kts 263°
2026-05-08 11:11 33.42757 -112.07521 4068 ft 183 kts 251°
2026-05-08 11:11 33.42307 -112.08966 4701 ft 195 kts 252°
2026-05-08 11:11 33.41815 -112.10589 4946 ft 224 kts 252°
2026-05-08 11:11 33.41248 -112.12463 5174 ft 254 kts 252°
2026-05-08 11:12 33.40615 -112.14549 5625 ft 274 kts 250°
2026-05-08 11:12 33.39573 -112.16498 6474 ft 284 kts 224°
2026-05-08 11:12 33.37881 -112.17729 7517 ft 289 kts 196°
2026-05-08 11:12 33.35888 -112.17913 8595 ft 290 kts 170°
2026-05-08 11:13 33.33934 -112.17329 9700 ft 290 kts 161°
2026-05-08 11:13 33.31987 -112.16608 10562 ft 300 kts 160°
2026-05-08 11:13 33.29929 -112.15809 10844 ft 329 kts 156°
2026-05-08 11:13 33.27972 -112.14264 11294 ft 344 kts 135°
2026-05-08 11:14 33.26253 -112.12224 12160 ft 349 kts 133°
2026-05-08 11:14 33.24576 -112.10098 13109 ft 352 kts 126°
2026-05-08 11:14 33.23449 -112.07553 14005 ft 353 kts 108°
2026-05-08 11:14 33.22680 -112.04755 14901 ft 356 kts 106°
2026-05-08 11:15 33.21956 -112.01904 15753 ft 360 kts 105°
2026-05-08 11:15 33.21233 -111.99012 16584 ft 364 kts 105°
2026-05-08 11:15 33.20495 -111.96087 17413 ft 369 kts 105°
2026-05-08 11:15 33.19740 -111.93129 17887 ft 375 kts 105°
2026-05-08 11:16 33.18973 -111.90166 18510 ft 380 kts 105°
2026-05-08 11:16 33.18185 -111.87145 19337 ft 380 kts 105°
2026-05-08 11:16 33.17389 -111.84114 20126 ft 382 kts 105°
2026-05-08 11:16 33.16588 -111.81069 20808 ft 386 kts 105°
2026-05-08 11:17 33.15776 -111.77990 21488 ft 390 kts 105°
2026-05-08 11:17 33.14966 -111.74922 22162 ft 394 kts 105°
2026-05-08 11:17 33.14136 -111.71781 22842 ft 397 kts 105°
2026-05-08 11:17 33.13298 -111.68616 23462 ft 401 kts 105°
2026-05-08 11:18 33.12452 -111.65418 23988 ft 404 kts 105°
2026-05-08 11:18 33.11611 -111.62249 24514 ft 408 kts 105°
2026-05-08 11:18 33.10750 -111.59007 25047 ft 411 kts 105°
2026-05-08 11:18 33.09881 -111.55737 25547 ft 415 kts 104°
2026-05-08 11:19 33.09005 -111.52444 26032 ft 418 kts 105°
2026-05-08 11:19 33.08116 -111.49107 26520 ft 422 kts 105°
2026-05-08 11:19 33.07223 -111.45800 26977 ft 426 kts 107°
2026-05-08 11:19 33.05876 -111.42609 27395 ft 435 kts 120°
2026-05-08 11:20 33.04195 -111.39578 27892 ft 438 kts 121°
2026-05-08 11:20 33.02488 -111.36544 28319 ft 442 kts 121°
2026-05-08 11:20 33.00770 -111.33488 28736 ft 446 kts 121°
2026-05-08 11:20 32.99042 -111.30394 29133 ft 450 kts 121°
2026-05-08 11:21 32.97334 -111.27312 29539 ft 453 kts 121°
2026-05-08 11:21 32.95594 -111.24159 29951 ft 456 kts 121°
2026-05-08 11:21 32.93844 -111.20980 30268 ft 459 kts 121°
2026-05-08 11:21 32.92087 -111.17786 30583 ft 462 kts 121°
2026-05-08 11:22 32.90321 -111.14578 30930 ft 464 kts 121°
2026-05-08 11:22 32.88549 -111.11363 31383 ft 463 kts 121°
2026-05-08 11:22 32.86806 -111.08205 31873 ft 461 kts 121°
2026-05-08 11:22 32.85043 -111.05012 32295 ft 461 kts 122°
2026-05-08 11:23 32.83276 -111.01814 32656 ft 462 kts 122°
2026-05-08 11:23 32.82101 -110.99689 32912 ft 462 kts 122°
2026-05-08 11:23 32.80329 -110.96487 33337 ft 461 kts 122°
2026-05-08 11:23 32.78565 -110.93302 33734 ft 461 kts 122°
2026-05-08 11:24 32.76794 -110.90109 34067 ft 462 kts 122°
2026-05-08 11:24 32.75041 -110.86948 34354 ft 463 kts 123°
2026-05-08 11:24 32.73266 -110.83753 34643 ft 463 kts 123°
2026-05-08 11:24 32.71487 -110.80551 34943 ft 464 kts 123°
2026-05-08 11:25 32.69704 -110.77345 35233 ft 464 kts 123°
2026-05-08 11:25 32.67924 -110.74146 35540 ft 463 kts 124°
2026-05-08 11:25 32.66148 -110.70959 35880 ft 462 kts 124°
2026-05-08 11:25 32.64463 -110.67711 36168 ft 463 kts 115°
2026-05-08 11:26 32.63427 -110.64139 36403 ft 464 kts 105°
2026-05-08 11:26 32.62627 -110.60432 36711 ft 463 kts 104°
2026-05-08 11:26 32.61861 -110.56706 36948 ft 464 kts 104°
2026-05-08 11:27 32.60304 -110.49240 36973 ft 470 kts 105°
2026-05-08 11:27 32.58674 -110.41741 36956 ft 465 kts 105°
2026-05-08 11:28 32.57028 -110.34336 36964 ft 462 kts 105°
2026-05-08 11:28 32.55388 -110.27001 36964 ft 461 kts 105°
2026-05-08 11:29 32.53751 -110.19688 36958 ft 461 kts 105°
2026-05-08 11:29 32.52103 -110.12338 36950 ft 461 kts 106°
2026-05-08 11:30 32.50445 -110.04970 36941 ft 462 kts 106°
2026-05-08 11:30 32.48783 -109.97602 36929 ft 463 kts 106°
2026-05-08 11:31 32.47123 -109.90264 36919 ft 465 kts 106°
2026-05-08 11:31 32.45497 -109.83095 36913 ft 466 kts 106°
2026-05-08 11:32 32.43808 -109.75664 36905 ft 468 kts 105°
2026-05-08 11:32 32.42627 -109.68118 36904 ft 470 kts 98°
2026-05-08 11:33 32.41778 -109.60430 36892 ft 470 kts 98°
2026-05-08 11:33 32.40874 -109.52737 36888 ft 471 kts 99°
2026-05-08 11:34 32.39907 -109.45104 36885 ft 471 kts 99°
2026-05-08 11:34 32.38916 -109.37456 36883 ft 471 kts 100°
2026-05-08 11:35 32.37919 -109.29770 36885 ft 471 kts 99°
2026-05-08 11:35 32.36921 -109.22091 36884 ft 472 kts 100°
2026-05-08 11:36 32.35929 -109.14440 36888 ft 472 kts 99°
2026-05-08 11:36 32.35143 -109.06756 36920 ft 473 kts 97°
2026-05-08 11:37 32.34438 -108.99002 36963 ft 473 kts 97°
2026-05-08 11:37 32.33711 -108.91296 37008 ft 473 kts 98°
2026-05-08 11:38 32.32952 -108.83560 37050 ft 473 kts 98°
2026-05-08 11:38 32.32182 -108.75825 37078 ft 473 kts 98°
2026-05-08 11:39 32.31408 -108.68085 37070 ft 474 kts 98°
2026-05-08 11:39 32.30630 -108.60348 37071 ft 474 kts 98°
2026-05-08 11:40 32.29851 -108.52647 37040 ft 474 kts 98°
2026-05-08 11:40 32.29074 -108.45053 36985 ft 455 kts 95°
2026-05-08 11:41 32.28322 -108.37669 36949 ft 451 kts 96°
2026-05-08 11:41 32.27570 -108.30337 36903 ft 452 kts 96°
2026-05-08 11:42 32.26791 -108.22926 36889 ft 454 kts 97°
2026-05-08 11:42 32.25939 -108.15519 36893 ft 458 kts 97°
2026-05-08 11:43 32.25060 -108.08000 36926 ft 462 kts 97°
2026-05-08 11:43 32.24624 -108.04250 36402 ft 472 kts 97°
2026-05-08 11:43 32.24178 -108.00408 35827 ft 469 kts 97°
2026-05-08 11:43 32.23735 -107.96588 35075 ft 468 kts 96°
2026-05-08 11:44 32.23292 -107.92784 34442 ft 464 kts 96°
2026-05-08 11:44 32.22852 -107.89018 33961 ft 457 kts 95°
2026-05-08 11:44 32.22415 -107.85270 32676 ft 464 kts 95°
2026-05-08 11:44 32.21979 -107.81551 32072 ft 457 kts 94°
2026-05-08 11:45 32.21546 -107.77884 31445 ft 447 kts 94°
2026-05-08 11:45 32.21120 -107.74221 30758 ft 444 kts 93°
2026-05-08 11:45 32.20708 -107.70662 30068 ft 440 kts 93°
2026-05-08 11:45 32.20296 -107.67106 29417 ft 432 kts 93°
2026-05-08 11:46 32.19890 -107.63609 28830 ft 423 kts 93°
2026-05-08 11:46 32.19493 -107.60193 28236 ft 416 kts 94°
2026-05-08 11:46 32.19105 -107.56869 27671 ft 410 kts 94°
2026-05-08 11:46 32.18718 -107.53548 27086 ft 404 kts 94°
2026-05-08 11:47 32.18336 -107.50278 26502 ft 400 kts 94°
2026-05-08 11:47 32.17956 -107.47033 25906 ft 396 kts 95°
2026-05-08 11:47 32.17579 -107.43817 25324 ft 393 kts 95°
2026-05-08 11:47 32.17208 -107.40665 24749 ft 390 kts 95°
2026-05-08 11:48 32.16833 -107.37497 24177 ft 388 kts 95°
2026-05-08 11:48 32.16460 -107.34340 23586 ft 386 kts 96°
2026-05-08 11:48 32.16087 -107.31199 22902 ft 385 kts 96°
2026-05-08 11:48 32.15715 -107.28070 22297 ft 382 kts 96°
2026-05-08 11:49 32.15350 -107.25011 21725 ft 379 kts 96°
2026-05-08 11:49 32.14983 -107.21944 21162 ft 376 kts 97°
2026-05-08 11:49 32.14617 -107.18888 20601 ft 373 kts 97°
2026-05-08 11:49 32.14253 -107.15856 20041 ft 371 kts 97°
2026-05-08 11:50 32.13891 -107.12845 19485 ft 369 kts 97°
2026-05-08 11:50 32.13535 -107.09895 18938 ft 367 kts 97°
2026-05-08 11:50 32.13173 -107.06895 18351 ft 367 kts 98°
2026-05-08 11:50 32.12814 -107.03922 17720 ft 365 kts 98°
2026-05-08 11:51 32.12454 -107.00956 17124 ft 363 kts 98°
2026-05-08 11:51 32.12098 -106.98058 16537 ft 360 kts 99°
2026-05-08 11:51 32.11577 -106.95171 15960 ft 358 kts 103°
2026-05-08 11:51 32.10933 -106.92340 15398 ft 355 kts 105°
2026-05-08 11:52 32.10277 -106.89526 14816 ft 353 kts 104°
2026-05-08 11:52 32.09654 -106.86766 14242 ft 352 kts 104°
2026-05-08 11:52 32.09038 -106.83972 13634 ft 351 kts 103°
2026-05-08 11:52 32.08422 -106.81189 13003 ft 349 kts 104°
2026-05-08 11:53 32.07774 -106.78438 12407 ft 347 kts 104°
2026-05-08 11:53 32.07226 -106.76156 11935 ft 343 kts 104°
2026-05-08 11:53 32.06578 -106.73452 11376 ft 341 kts 104°
2026-05-08 11:53 32.05935 -106.70788 10811 ft 340 kts 105°
2026-05-08 11:54 32.05280 -106.68116 10467 ft 329 kts 105°
2026-05-08 11:54 32.04664 -106.65624 10276 ft 309 kts 104°
2026-05-08 11:54 32.04082 -106.63265 10133 ft 290 kts 104°
2026-05-08 11:54 32.03533 -106.61036 10008 ft 276 kts 104°
2026-05-08 11:55 32.03005 -106.58890 9754 ft 273 kts 104°
2026-05-08 11:55 32.02479 -106.56744 9428 ft 279 kts 104°
2026-05-08 11:55 32.01934 -106.54526 9306 ft 279 kts 105°
2026-05-08 11:55 32.01408 -106.52395 9152 ft 268 kts 105°
2026-05-08 11:56 32.00896 -106.50327 9025 ft 256 kts 105°
2026-05-08 11:56 32.00391 -106.48345 8886 ft 247 kts 110°
2026-05-08 11:56 31.99625 -106.46568 8659 ft 246 kts 120°
2026-05-08 11:56 31.98728 -106.44832 8404 ft 249 kts 121°
2026-05-08 11:57 31.97824 -106.43079 8150 ft 249 kts 121°
2026-05-08 11:57 31.96939 -106.41327 7881 ft 247 kts 120°
2026-05-08 11:57 31.96083 -106.39613 7607 ft 244 kts 120°
2026-05-08 11:57 31.95226 -106.37891 7346 ft 242 kts 120°
2026-05-08 11:58 31.94390 -106.36205 7087 ft 239 kts 120°
2026-05-08 11:58 31.93556 -106.34519 6832 ft 236 kts 120°
2026-05-08 11:58 31.92734 -106.32855 6565 ft 233 kts 121°
2026-05-08 11:59 31.90501 -106.30335 5958 ft 218 kts 159°
2026-05-08 11:59 31.89084 -106.29987 5739 ft 200 kts 181°
2026-05-08 11:59 31.87813 -106.30278 5664 ft 172 kts 203°
2026-05-08 11:59 31.86849 -106.30908 5525 ft 148 kts 215°
2026-05-08 12:00 31.86099 -106.31701 5219 ft 140 kts 228°
2026-05-08 12:00 31.85457 -106.32567 5037 ft 144 kts 230°
2026-05-08 12:00 31.84801 -106.33484 4858 ft 149 kts 230°
2026-05-08 12:00 31.84130 -106.34425 4641 ft 150 kts 229°
2026-05-08 12:01 31.83463 -106.35361 4403 ft 147 kts 229°
2026-05-08 12:01 31.82814 -106.36270 4172 ft 144 kts 230°
2026-05-08 12:01 31.82156 -106.37180 3968 ft 146 kts 230°
2026-05-08 12:01 31.81578 -106.37997 3946 ft 108 kts 230°
2026-05-08 12:02 31.81232 -106.38478 3947 ft 50 kts 229°
2026-05-08 12:02 31.81014 -106.38785 3948 ft 47 kts 231°
2026-05-08 12:02 31.80810 -106.39047 3946 ft 35 kts 209°
2026-05-08 12:02 31.80605 -106.39145 3946 ft 31 kts 198°
2026-05-08 12:03 31.80423 -106.39223 3946 ft 24 kts 200°
2026-05-08 12:03 31.80314 -106.39270 3946 ft 9 kts 200°
2026-05-08 12:03 31.80257 -106.39300 3946 ft 9 kts 215°
2026-05-08 12:03 31.80210 -106.39344 3946 ft 9 kts 213°
2026-05-08 12:04 31.80162 -106.39383 3946 ft 8 kts 216°
2026-05-08 12:04 31.80118 -106.39419 3946 ft 7 kts 207°
2026-05-08 12:04 31.80078 -106.39425 3946 ft 5 kts 169°
2026-05-08 12:04 31.80066 -106.39422 3946 ft 1 kts 168°
2026-05-08 12:05 31.80059 -106.39421 3946 ft 0 kts 168°